Home   Weather   Mexicali   Past weeks

Flag for Mexico Past Weather in Mexicali, Baja California, Mexico — Yesterday and Last 2 Weeks

Now
67 °F

Clear.


Feels Like: 67 °F
Forecast: 57 / 83 °F
Wind: 15 mph from North

Location: Imperial County Airport

Current Time: Apr 29, 2017 at 6:31:46 am

Latest Report: Apr 29, 2017 at 4:53 am


Visibility: 10 mi

Pressure: 29.93 "Hg

Humidity: 20%

Dew Point: 25 °F

Location of MexicaliLocation

Past Weather in Mexicali — Graph

°F

Mexicali Temperature Yesterday

Maximum temperature yesterday: 87 °F (at 3:53 pm)
Minimum temperature yesterday: 62 °F (at 11:53 pm)
Average temperature yesterday: 77 °F

High & Low Weather Summary for the Past Weeks

 TemperatureHumidityPressure
High97 °F (Apr 23, 1:53 pm)67% (Apr 19, 5:53 am)30.03 "Hg (Apr 19, 5:53 am)
Low53 °F (Apr 14, 4:53 am)8% (Apr 23, 5:53 pm)29.54 "Hg (Apr 27, 5:53 pm)
Average77 °F31%29.80 "Hg
* Reported Apr 14 4:53 am — Apr 29 4:53 am, Mexicali, Weather by CustomWeather, © 2017

Note: Actual official high and low records may vary slightly from our data, if they occured in-between our weather recording intervals... More about our weather records

Advertising

Mexicali Weather History for the Previous 24 Hours

Scroll right to see more
 ConditionsComfort  
Time TempWeatherWind HumidityBarometerVisibility
4:53 am
Sat, Apr 29
67 °FClear.15 mph20%29.93 "Hg10 mi
3:53 am67 °FClear.13 mph18%29.91 "Hg10 mi
2:53 am68 °FClear.10 mph17%29.89 "Hg10 mi
1:53 am65 °FClear.5 mph19%29.88 "Hg10 mi
12:53 am70 °FClear.10 mph13%29.86 "Hg10 mi
11:53 pm
Fri, Apr 28
62 °FClear.No wind31%29.82 "Hg10 mi
10:53 pm70 °FClear.3 mph18%29.78 "Hg10 mi
9:53 pm73 °FClear.6 mph13%29.76 "Hg10 mi
8:53 pm76 °FClear.12 mph13%29.72 "Hg10 mi
7:53 pm78 °FClear.10 mph15%29.68 "Hg10 mi
6:53 pm84 °FPassing clouds.15 mph15%29.64 "Hg10 mi
5:53 pm87 °FSunny.12 mph12%29.62 "Hg10 mi
4:53 pm87 °FSunny.12 mph11%29.62 "Hg10 mi
3:53 pm87 °FSunny.7 mph12%29.63 "Hg10 mi
2:53 pm86 °FSunny.7 mph12%29.66 "Hg10 mi
1:53 pm86 °FSunny.9 mph12%29.69 "Hg10 mi
12:53 pm86 °FSunny.12 mph13%29.70 "Hg10 mi
11:53 am85 °FSunny.12 mph14%29.71 "Hg10 mi
10:53 am83 °FSunny.13 mph15%29.72 "Hg10 mi
9:53 am81 °FSunny.12 mph18%29.71 "Hg10 mi
8:53 am77 °FSunny.9 mph42%29.70 "Hg10 mi
7:53 am74 °FSunny.7 mph38%29.69 "Hg10 mi
6:53 am65 °FSunny.5 mph49%29.66 "Hg10 mi
Weather by CustomWeather, © 2017

See weather overviewHow to use our weather pages